Location: *
(18.5200°S, 46.4500°E)
Time: 09:58:37
(UTC+00:00)

CZ-3C R/B - Pass Details

Date: 19 July 2019
Orbit: 277 x 33019 km, 20.4° (Epoch: 23 August)

Event Time Altitude Azimuth Distance (km) Brightness Sun altitude
Rises 16:03:02 0° 283° (WNW) 11,608 9.6 -20.6°
Reaches altitude 10° 16:16:32 10° 282° (WNW) 6,489 7.8 -23.7°
Maximum altitude 16:29:25 85° 8° (N) 793 1.9 -26.6°
Enters shadow 16:29:31 84° 43° (NE) 781 1.9 -26.6°
